Skip Page Navigation
NASA JPL Caltech
NASA Logo - Jet Propulsion Laboratory + View the NASA Portal
+ Near-Earth Object (NEO) Program
Search JPL
JPL Home Earth Solar System Stars & Galaxies Technology
JPL Solar System Dynamics
BODIES ORBITS EPHEMERIDES TOOLS PHYSICAL DATA DISCOVERY FAQ SITE MAP
JPL Small-Body Database Browser
Search: [ help ]  
6847 Kunz-Hallstein (1977 RL)
Classification: Mars-crossing Asteroid          SPK-ID: 2006847
Ephemeris | Orbit Diagram | Orbital Elements | Physical Parameters | Discovery Circumstances ]

[ show orbit diagram ]
Orbital Elements at Epoch 2456400.5 (2013-Apr-18.0) TDB
Reference: MPO240256 (heliocentric ecliptic J2000)
 Element Value Uncertainty (1-sigma)   Units 
e 0.2883011 n/a  
a 2.3211851 n/a AU
q 1.6519849 n/a AU
i 24.59788 n/a deg
node 48.52990 n/a deg
peri 53.15352 n/a deg
M 296.91945 n/a deg
tp 2456626.8372692
(2013-Nov-30.33726920)
n/a JED
period 1291.7042876
3.54
n/a
n/a
d
yr
n 0.27870156 n/a deg/d
Q 2.9903853 n/a AU
  Orbit Determination Parameters
   # obs. used (total)      495  
   first obs. used      1977-??-??  
   last obs. used      2012-09-03  
   # oppositions      12  
   planetary ephem.      DE403  
   condition code      0  
   fit RMS      0.57  
   data source      MPC:mpn  
   producer      MPCLINUX  

Additional Information
 T_jup = 3.405 

Ephemeris | Orbit Diagram | Orbital Elements | Physical Parameters | Discovery Circumstances ]

Physical Parameter Table
Parameter Symbol Value Units Sigma Reference Notes
absolute magnitude H 13.7 mag n/a PDS3 (MPC 28116)  
rotation period rot_per 6.4030 h n/a Asteroid Lightcurve DataBase (Rev. 2013-May-01) Published Reference List:
[Behrend, R. (2007) Observatoire de Geneve web site, http://obswww.unige.ch/~behrend/page_cou.html]
SMASSII spectral type spec_B Sk   n/a EAR-A-5-DDR-TAXONOMY-V4.0 based on a high-resolution spectrum by Xu et al. (1995) or Bus and Binzel (2002)

6847 Kunz-Hallstein           Discovered 1977 Sept. 5 by H.-E. Schuster at La Silla.
The German lawyer Hans Peter Kunz-Hallstein (b. 1939) has been legal advisor for the European Southern Observatory for more than 20 years. A highlight of his work was the negotiations with the Chilean government over the interpretation, modification and amendment of the ESO-Chile agreement of 1963.
NOTE: some special characters may not display properly (any characters within {} are an attempt to place the proper accent above a character)
Reference: 19990928/MPCPages.arcLast Updated: 2010-06-11

Alternate Designations
 1977 RL = 1988 VP1 
Ephemeris | Orbit Diagram | Orbital Elements | Physical Parameters | Discovery Circumstances ]
ABOUT SSD CREDITS/AWARDS PRIVACY/COPYRIGHT GLOSSARY LINKS
FirstGov 2013-May-18 14:24 UT
(server date/time)  
NASA Home Page
Site Manager:   Donald K. Yeomans
Webmaster  Alan B. Chamberlin